Location: Asheville, NC
(35.6000°N, 82.5500°W)
Time: 18:47:51
(UTC-04:00)

KKS-1 - Pass Details

Date: 10 March 2018
Orbit: 638 x 649 km, 98.4° (Epoch: 19 June)

Event Time Altitude Azimuth Distance (km) Brightness Sun altitude
Rises 05:21:34 0° 167° (SSE) 2,942 ? -18.4°
Reaches altitude 10° 05:23:46 10° 168° (SSE) 2,037 ? -17.9°
Maximum altitude 05:28:13 85° 257° (WSW) 654 ? -17.0°
Drops below altitude 10° 05:32:42 10° 346° (NNW) 2,055 ? -16.1°
Sets 05:34:56 0° 347° (NNW) 2,970 ? -15.7°
